Theta_e
326 321 317 316 304 303 297 298 303 304 305 309 313 309 307 312 312 308 330 333 339 341 342 342 345 346 347 347 347 345 343 341 340 342 340 342 343 340 340 339 341 340 340 341 343 343 342 341 340
317 317 316 312 299 296 295 300 301 304 309 312 308 307 308 311 322 325 326 335 341 341 341 340 342 345 346 346 347 345 343 342 340 341 339 339 342 340 341 339 340 340 338 339 340 339 338 339 338
319 315 310 304 300 296 295 300 303 307 310 311 308 311 309 313 323 328 332 335 341 339 340 340 342 345 346 346 347 344 343 342 340 340 338 339 341 340 340 341 342 341 338 337 337 337 337 336 336
314 310 310 300 298 300 299 302 305 305 306 309 308 307 315 323 325 332 333 336 339 339 339 340 344 345 346 345 346 344 343 342 340 340 338 339 341 340 341 341 340 341 339 339 340 338 336 335 334
311 309 299 297 299 299 301 305 306 304 303 304 306 304 312 325 334 333 333 336 338 338 338 341 343 344 345 345 346 344 343 341 339 339 338 337 338 340 340 340 338 338 339 338 337 336 335 334 333
304 306 297 295 298 300 300 304 305 303 304 305 301 305 315 327 331 332 334 334 339 337 337 339 336 339 342 344 344 342 342 341 339 339 338 337 336 337 339 338 338 339 338 336 335 335 334 332 331
304 301 297 298 297 298 301 304 302 302 301 302 305 301 316 323 332 333 334 336 338 338 337 337 338 336 336 339 340 340 340 339 338 338 339 337 335 337 338 337 337 336 336 334 333 333 332 331 329
305 303 298 299 297 297 302 303 302 302 302 307 308 301 308 324 332 333 333 335 336 336 337 335 335 335 335 335 334 336 337 336 336 334 332 330 329 330 331 330 335 335 334 333 332 332 330 329 328
308 299 297 299 299 299 303 300 302 303 303 302 307 309 319 330 332 330 330 332 334 335 335 336 334 333 333 335 330 331 331 331 330 328 327 325 324 326 325 326 331 333 333 332 330 329 328 326 325
302 299 300 303 301 301 303 302 301 298 301 302 306 312 328 329 328 327 325 329 331 332 334 334 335 334 332 334 331 332 331 329 328 327 325 326 325 325 324 322 325 327 327 328 327 325 326 323 318
302 299 300 302 303 305 303 301 303 299 298 301 304 311 325 326 326 327 328 330 331 331 333 335 334 333 333 330 332 332 331 329 328 326 324 324 325 323 323 321 321 322 319 319 320 319 319 318 318
297 301 301 303 302 302 302 303 300 301 300 305 306 314 322 324 325 325 327 329 329 331 332 335 335 334 333 333 330 331 330 329 330 326 325 322 323 322 322 320 320 319 318 317 318 317 318 317 318
298 297 300 301 300 300 304 301 300 300 303 304 308 315 318 322 324 327 329 330 329 330 332 334 335 335 334 332 331 332 329 330 329 327 325 323 322 321 322 321 321 319 318 317 316 316 316 315 316
299 299 298 298 299 299 300 298 298 301 303 302 304 309 314 317 321 321 323 326 330 330 331 334 335 335 335 334 331 331 331 329 328 326 324 323 322 322 322 321 319 317 316 316 316 315 315 314 314
299 296 296 297 298 296 298 294 295 298 302 302 301 302 307 313 317 319 322 323 326 330 331 332 334 335 334 334 333 331 331 330 327 326 325 323 323 322 321 320 318 316 315 315 314 314 314 312 313
294 294 289 296 297 297 295 290 298 300 298 298 298 298 300 305 310 315 319 323 325 327 331 332 333 334 334 334 333 332 331 330 327 326 324 323 322 323 321 319 318 316 314 313 312 311 309 309 309
293 286 290 291 298 296 294 291 296 298 297 296 297 298 300 302 304 308 315 320 324 326 328 332 332 331 332 333 333 333 331 330 330 326 324 323 322 323 323 321 318 316 313 311 311 309 308 308 307
288 287 290 290 293 293 291 292 294 295 295 295 296 297 298 298 300 304 310 317 322 324 326 328 332 331 330 332 332 332 331 330 330 327 324 324 322 321 321 321 319 314 311 311 309 307 307 307 308
291 290 289 292 294 291 291 292 294 296 295 295 296 297 298 299 302 302 305 311 317 321 324 326 328 331 331 329 329 328 328 329 328 329 326 324 323 321 319 316 313 310 309 309 307 307 305 304 307
290 289 287 290 293 291 290 291 295 296 295 296 297 297 298 299 300 302 302 304 312 317 321 324 326 330 331 331 330 329 329 329 329 329 329 328 324 321 319 317 314 310 308 309 306 304 301 302 304
289 288 288 288 291 290 288 287 290 294 296 296 297 299 299 299 300 301 302 302 303 309 316 321 324 327 331 331 330 328 327 326 326 327 328 328 327 325 320 318 315 310 310 310 306 304 303 303 304
287 292 291 290 287 281 288 279 287 291 292 293 295 296 298 297 298 299 300 300 301 302 304 306 317 321 325 331 327 325 325 324 326 326 328 328 328 326 324 320 316 313 313 311 310 306 307 305 302
289 293 291 289 286 284 284 281 285 289 289 292 293 294 296 296 298 297 299 301 301 302 301 301 302 305 314 322 329 326 324 325 325 325 325 325 326 326 322 319 318 317 316 314 313 309 308 307 304
294 291 290 287 285 279 285 283 283 287 290 290 291 293 295 296 298 299 301 302 302 306 307 306 302 301 305 313 323 326 327 324 323 322 323 324 324 324 322 321 320 319 316 314 312 310 308 305 305
291 287 279 278 277 277 284 282 286 291 291 290 292 293 294 297 298 298 299 301 304 305 308 308 304 301 302 308 313 320 326 324 322 323 324 321 319 317 319 319 318 318 317 314 311 308 306 304 304
288 287 281 275 276 277 281 278 285 292 292 292 294 293 297 297 299 299 300 301 302 305 305 309 308 302 303 307 310 315 319 319 320 322 322 321 320 319 318 316 315 314 313 311 309 307 305 303 302
287 285 289 282 275 277 281 284 290 292 292 291 291 293 294 296 297 298 299 300 301 303 306 307 308 309 310 310 312 313 315 318 318 319 319 317 315 311 312 312 310 309 308 307 306 304 301 300 299
290 292 283 282 273 273 278 279 282 287 290 291 291 291 294 297 297 297 298 299 300 302 305 307 310 308 307 308 309 309 311 314 314 314 312 311 307 306 306 307 306 305 304 304 303 302 300 298 298
286 286 287 287 284 277 274 278 286 288 291 291 291 293 294 295 296 296 297 298 299 300 303 305 306 308 307 307 305 305 306 307 308 308 307 306 305 306 306 305 303 303 303 301 301 299 298 297 296
291 288 288 282 279 280 279 282 290 290 292 292 292 296 296 296 296 296 296 297 298 299 300 302 304 305 307 307 306 305 305 306 306 306 306 306 304 303 302 299 298 297 298 300 298 297 296 295 293
Wind_Speed
10 10 4 3 2 3 4 4 8 8 6 2 9 6 12 9 7 6 7 12 17 15 11 11 10 11 11 11 13 14 14 14 14 14 15 14 17 16 15 17 16 16 16 17 18 18 18 18 18
7 8 3 4 3 5 3 8 9 5 7 10 5 3 6 7 7 9 6 13 16 15 11 10 10 10 11 11 14 14 13 13 14 14 14 14 15 16 16 17 15 16 17 17 17 18 18 17 17
8 6 2 3 5 5 5 9 10 10 7 7 5 4 5 5 10 10 12 12 17 13 12 12 10 10 10 11 13 14 13 13 13 14 14 14 14 14 15 16 15 16 17 18 18 18 18 17 16
4 2 4 3 9 7 7 9 12 8 5 8 3 8 6 6 6 10 11 12 15 12 14 11 12 11 11 11 11 14 13 13 12 13 13 15 15 15 15 17 17 17 17 18 19 18 17 17 16
2 3 4 6 7 6 5 11 10 8 7 5 3 5 7 4 8 13 11 10 16 14 12 10 11 11 10 10 10 13 13 13 12 12 11 12 15 15 14 17 16 15 17 17 17 16 16 15 14
3 2 3 6 4 8 4 7 8 6 6 6 1 8 5 8 8 9 10 9 14 15 12 10 9 10 10 9 12 14 13 12 12 11 11 12 13 13 15 16 15 16 17 16 15 15 14 14 13
3 2 7 9 7 6 6 5 5 7 6 5 3 5 7 8 9 9 9 8 16 14 11 9 8 8 9 9 10 12 12 11 10 10 10 11 10 11 13 13 13 15 16 13 14 14 13 13 12
3 1 5 6 8 5 7 7 0 6 5 3 5 3 7 9 10 9 8 10 14 11 11 10 8 7 6 6 8 9 11 11 10 10 10 9 9 10 11 9 12 15 14 13 13 12 12 12 10
4 2 4 3 9 7 9 6 1 2 7 3 3 5 11 14 10 8 7 6 10 10 6 11 9 7 7 7 6 8 10 10 10 8 8 8 4 5 7 9 11 13 13 13 12 10 10 10 6
2 2 6 5 1 9 10 9 8 4 8 5 7 4 14 11 6 9 9 8 6 9 6 5 11 9 9 8 7 6 6 5 5 6 6 4 5 5 8 8 11 12 11 10 7 5 5 4 3
4 3 1 6 7 10 9 5 8 5 6 10 13 10 13 13 7 8 7 12 8 7 5 5 6 7 8 7 5 4 4 4 5 7 6 4 6 5 5 3 3 3 5 2 3 3 2 3 3
4 3 6 3 4 4 9 6 4 6 3 5 7 16 12 14 13 12 13 14 10 10 8 6 5 5 5 6 5 5 5 4 4 5 6 3 3 4 5 4 5 4 3 4 3 2 3 4 3
2 3 4 7 3 2 6 3 1 6 8 7 10 13 12 12 12 13 13 13 13 12 11 9 8 5 6 5 5 5 5 4 5 5 5 4 4 4 5 5 5 4 3 3 2 3 2 2 1
4 5 6 2 5 3 1 3 3 8 10 9 8 9 10 10 13 9 10 12 15 15 14 12 11 9 6 5 6 6 4 5 5 5 5 6 4 5 4 4 4 4 4 4 4 4 4 3 2
0 4 3 4 5 2 3 0 7 2 6 9 9 8 9 11 11 12 11 10 10 14 14 14 13 12 11 8 5 4 5 5 5 5 8 7 5 6 6 4 4 4 3 5 3 3 3 3 2
5 4 4 6 6 2 3 6 10 10 9 8 9 9 9 10 9 10 10 10 10 10 16 15 13 13 12 10 8 4 5 5 5 5 5 8 7 7 6 5 4 5 4 3 3 3 1 2 3
5 4 7 2 7 3 5 5 3 7 8 8 8 9 9 9 9 9 9 10 10 10 11 16 15 15 14 11 8 6 5 5 4 4 5 7 7 7 6 5 5 6 4 4 3 2 3 3 3
5 5 6 6 5 1 4 10 2 5 5 8 9 8 7 8 10 9 9 8 9 9 10 12 13 15 14 8 7 6 5 3 4 5 5 8 6 7 5 5 6 6 5 4 3 3 2 2 3
3 8 5 3 2 2 7 8 10 8 7 9 8 7 7 9 9 10 10 9 8 9 10 12 12 13 12 9 8 7 8 7 4 6 8 8 8 7 6 4 5 5 6 5 4 3 4 3 2
3 2 2 5 5 2 5 9 10 8 7 9 10 10 10 8 8 9 10 10 10 9 9 9 10 12 11 10 9 8 7 7 7 5 6 8 9 9 8 7 6 6 4 5 6 5 2 3 5
4 3 3 3 4 3 4 8 9 11 14 10 10 10 9 9 10 8 10 10 7 8 9 8 9 9 12 11 9 5 3 3 6 8 8 7 6 10 10 8 6 6 5 6 5 7 7 4 2
5 7 3 8 3 4 5 6 4 8 8 8 11 11 12 9 4 5 6 7 7 6 6 5 6 8 7 12 10 13 10 9 7 7 7 7 10 7 8 9 8 8 7 7 7 6 6 4 5
3 5 6 4 3 5 5 1 8 4 8 10 11 10 9 7 8 6 7 5 3 3 2 2 2 4 5 6 11 10 10 9 7 5 7 7 8 9 7 8 9 8 7 8 7 7 8 7 3
8 8 7 2 3 4 8 7 6 6 9 5 1 5 7 6 6 7 6 4 1 1 2 4 4 5 5 6 7 12 12 9 5 5 7 6 5 6 7 8 9 9 7 8 9 8 9 7 7
6 6 3 1 1 7 4 6 10 5 3 3 6 8 8 7 6 6 6 4 3 2 1 3 5 5 6 6 5 6 11 10 9 7 6 7 5 3 7 9 9 7 8 7 6 7 7 8 8
11 10 8 9 5 5 4 9 8 9 5 7 6 7 7 7 7 7 7 5 5 3 1 1 4 5 5 4 5 5 5 3 4 6 4 5 6 6 5 5 5 6 6 6 6 5 5 6 6
6 11 3 7 2 4 7 7 8 6 6 6 6 6 6 7 8 8 7 6 5 4 3 3 5 6 7 4 2 5 4 6 4 5 4 4 4 4 5 5 4 4 4 5 5 3 4 4 4
6 5 4 1 5 4 7 6 7 3 8 7 8 10 10 8 8 7 5 5 4 5 5 5 5 5 5 5 6 5 5 6 4 4 5 5 5 4 5 4 5 4 4 4 4 3 3 4 3
3 4 6 5 6 8 2 8 2 2 10 11 10 9 8 7 7 7 6 4 3 3 4 5 5 5 4 5 4 5 5 5 5 5 5 5 5 5 5 5 5 5 4 4 3 2 3 4 3
12 9 14 7 7 3 4 11 2 7 6 6 7 7 7 9 7 8 7 6 5 4 4 4 5 5 5 5 5 5 5 5 5 5 5 5 6 5 5 5 4 4 2 0 1 1 1 3 4
Wind_Direction
297 270 289 307 297 210 138 91 98 97 102 18 59 22 81 57 31 116 168 115 121 119 125 124 121 112 112 102 114 101 99 98 98 88 89 81 87 86 84 82 72 72 72 77 74 78 73 68 69
306 311 276 275 238 232 126 123 133 130 99 93 109 160 82 88 75 127 91 129 123 124 133 129 120 117 114 106 117 108 106 102 101 95 91 82 82 83 83 86 87 84 81 79 75 77 80 75 73
276 269 270 214 244 298 125 149 96 90 107 136 113 9 32 90 109 151 131 141 121 126 125 125 125 126 119 114 116 115 111 106 104 101 94 95 89 86 82 88 77 86 83 87 88 87 82 76 69
296 246 286 264 251 62 82 113 109 111 49 348 56 82 77 339 117 115 146 141 119 127 112 129 130 126 118 120 118 117 114 107 106 103 98 85 77 92 86 85 80 77 89 90 86 82 77 70 64
253 253 232 227 259 88 26 106 130 152 145 159 269 119 91 58 87 127 142 143 126 117 121 132 129 125 117 121 130 121 118 113 110 107 101 86 82 84 88 89 87 88 83 83 83 80 74 66 56
269 258 210 224 186 90 83 105 143 140 133 83 165 113 87 126 126 146 140 146 119 123 132 134 129 127 123 117 125 125 122 119 117 114 104 99 90 81 92 88 87 91 83 81 81 79 75 68 56
257 214 243 224 122 129 137 148 169 126 135 160 353 104 125 152 136 147 152 143 118 129 125 135 142 136 128 126 121 124 123 120 118 109 93 91 88 80 95 94 96 91 89 86 84 80 79 72 62
293 199 250 236 132 148 134 158 130 134 96 58 6 156 162 143 144 146 162 148 127 124 139 147 141 152 141 133 128 129 122 117 110 105 99 98 96 96 100 92 93 100 104 100 92 87 86 81 64
319 291 213 220 149 130 146 123 292 16 123 120 84 60 120 128 144 147 140 104 121 134 176 154 151 161 151 135 126 114 116 118 113 114 131 144 127 112 79 81 81 89 90 93 97 101 107 100 75
233 267 220 184 130 143 167 146 140 148 132 128 97 71 116 120 148 153 158 145 135 151 163 153 159 168 152 154 151 142 139 149 151 150 179 198 135 123 93 81 81 85 77 83 100 124 157 138 153
227 250 165 37 35 136 165 145 153 176 176 177 167 162 140 133 163 172 175 175 161 173 152 172 163 174 159 142 168 155 161 176 152 152 200 172 119 127 115 120 111 113 119 126 180 213 248 63 72
263 338 347 86 21 53 147 150 166 222 125 68 122 156 150 155 179 182 186 187 171 176 196 168 157 174 163 135 170 163 160 170 153 163 185 135 130 157 139 154 155 170 195 166 187 79 61 49 45
275 89 1 43 94 23 97 164 159 214 125 78 95 147 164 167 186 183 187 189 183 184 194 178 169 178 174 189 178 165 171 163 162 154 163 165 161 184 154 163 159 184 156 164 161 130 152 117 85
230 136 103 184 104 29 150 98 41 235 142 130 138 167 173 183 181 187 194 191 182 180 192 180 180 179 179 194 193 194 174 167 163 155 168 194 183 171 161 154 159 159 159 183 170 171 167 169 154
360 109 148 197 162 109 289 171 237 339 124 165 176 199 193 192 183 192 189 189 187 178 178 194 185 180 183 190 203 189 185 164 174 167 167 190 192 176 161 159 166 170 185 175 168 166 161 153 175
173 236 175 158 130 128 103 255 219 185 158 206 200 205 205 210 199 193 190 186 183 171 177 183 191 189 186 190 202 202 180 176 179 172 168 178 194 173 166 163 180 177 172 166 166 168 156 175 185
223 180 211 159 195 108 176 258 293 129 161 218 236 226 197 193 206 220 199 183 181 176 172 179 182 188 196 194 201 201 199 185 192 169 169 179 188 183 169 169 181 173 167 177 181 175 159 199 199
166 224 220 156 196 94 199 263 237 202 225 232 236 229 235 202 209 203 210 197 176 177 178 174 181 179 184 187 190 206 210 198 182 180 186 181 186 188 171 172 179 166 166 188 181 161 180 173 186
12 196 172 150 56 185 225 254 256 232 204 232 253 259 236 219 215 200 191 193 193 186 178 185 180 175 173 184 185 192 198 207 206 214 184 180 181 183 183 168 158 160 172 172 166 147 184 244 203
255 266 139 50 114 139 274 247 255 258 242 213 217 236 236 228 224 195 178 179 187 194 191 189 185 181 185 185 182 200 195 207 210 207 216 189 177 181 186 176 181 178 159 179 178 156 162 218 199
220 198 224 95 158 270 323 281 241 247 231 231 231 225 242 220 209 187 166 175 181 197 197 199 197 188 190 187 176 172 175 179 192 208 207 226 202 182 183 187 163 168 188 201 178 176 181 186 203
187 219 274 120 111 245 191 279 270 231 211 209 227 224 227 237 236 124 139 155 170 219 219 215 212 208 203 185 179 186 200 210 211 210 207 202 214 205 181 177 164 177 189 198 195 180 196 161 194
196 147 159 137 204 305 212 276 263 206 221 227 224 224 229 219 198 154 117 106 71 53 352 340 296 267 243 208 188 188 198 213 219 175 188 189 198 205 178 172 183 198 196 205 184 186 207 205 171
134 84 72 78 225 267 208 200 243 205 212 229 182 159 133 125 108 93 84 77 283 133 255 255 242 253 262 238 191 190 203 202 193 179 192 192 193 197 188 188 194 200 200 193 199 198 195 193 200
133 136 108 256 212 224 6 263 233 252 292 185 168 153 157 142 137 137 147 146 130 143 236 235 209 242 241 227 236 206 211 197 208 192 190 171 167 171 191 192 198 202 205 197 183 180 191 191 197
192 169 163 184 194 224 1 241 254 228 98 151 113 123 130 145 139 149 143 142 142 124 312 282 192 214 211 209 227 243 249 185 178 188 163 165 177 190 178 180 177 186 176 175 176 185 192 188 198
206 228 148 107 2 57 219 267 299 221 239 199 177 154 189 185 164 153 147 152 143 133 127 52 37 34 37 43 50 65 54 101 133 134 129 135 126 142 157 168 178 178 170 169 164 161 171 175 188
182 148 190 300 140 236 258 238 227 138 236 221 199 191 200 182 152 141 145 148 135 133 131 107 87 81 52 40 45 57 73 79 103 115 124 127 113 125 128 125 124 122 127 124 148 157 160 181 204
119 199 210 159 185 181 269 256 199 191 209 201 198 190 189 164 174 166 158 127 110 87 91 120 118 109 83 68 66 65 61 77 89 100 108 112 109 123 121 126 122 126 128 129 142 157 163 196 213
216 217 194 175 238 223 170 257 139 88 57 58 167 146 152 161 157 144 147 150 149 134 120 101 110 118 116 111 101 101 100 100 101 105 108 125 112 91 97 95 104 110 118 161 242 226 222 230 235